TimePDT,TemperatureF,Dew PointF,Humidity,Sea Level PressureIn,VisibilityMPH,Wind Direction,Wind SpeedMPH,Gust SpeedMPH,PrecipitationIn,Events,Conditions,WindDirDegrees,DateUTC
12:56 AM,88.0,27.0,11,29.59,10.0,North,3.5,-,N/A,,Clear,350,2013-06-22 07:56:00
1:56 AM,87.1,27.0,11,29.59,10.0,Calm,Calm,-,N/A,,Clear,0,2013-06-22 08:56:00
2:56 AM,84.0,27.0,13,29.59,10.0,WSW,9.2,-,N/A,,Clear,250,2013-06-22 09:56:00
3:56 AM,82.9,27.0,13,29.60,10.0,SSW,3.5,-,N/A,,Clear,210,2013-06-22 10:56:00
4:56 AM,82.9,28.0,14,29.60,10.0,Calm,Calm,-,N/A,,Clear,0,2013-06-22 11:56:00
5:56 AM,80.1,26.1,14,29.63,10.0,WNW,4.6,-,N/A,,Clear,300,2013-06-22 12:56:00
6:56 AM,82.9,30.0,15,29.66,10.0,Calm,Calm,-,N/A,,Clear,0,2013-06-22 13:56:00
7:56 AM,87.1,32.0,14,29.67,10.0,East,3.5,-,N/A,,Clear,90,2013-06-22 14:56:00
8:56 AM,91.0,30.9,12,29.68,10.0,SE,4.6,-,N/A,,Clear,140,2013-06-22 15:56:00
9:56 AM,93.9,36.0,13,29.68,10.0,Calm,Calm,-,N/A,,Clear,0,2013-06-22 16:56:00
10:56 AM,99.0,33.1,10,29.67,10.0,Variable,6.9,-,N/A,,Clear,0,2013-06-22 17:56:00
11:56 AM,100.0,27.0,8,29.67,10.0,Variable,4.6,-,N/A,,Clear,0,2013-06-22 18:56:00
12:56 PM,100.9,28.0,8,29.65,10.0,Variable,4.6,-,N/A,,Clear,0,2013-06-22 19:56:00
1:56 PM,102.9,25.0,6,29.62,10.0,SW,12.7,18.4,N/A,,Clear,230,2013-06-22 20:56:00
2:56 PM,104.0,25.0,6,29.60,10.0,SSW,9.2,21.9,N/A,,Clear,210,2013-06-22 21:56:00
3:56 PM,105.1,23.0,6,29.57,10.0,South,15.0,23.0,N/A,,Clear,180,2013-06-22 22:56:00
4:56 PM,104.0,24.1,6,29.55,10.0,SW,6.9,18.4,N/A,,Clear,220,2013-06-22 23:56:00
5:56 PM,104.0,23.0,6,29.54,10.0,WSW,12.7,20.7,N/A,,Clear,250,2013-06-23 00:56:00
6:56 PM,102.0,23.0,6,29.55,10.0,WSW,10.4,-,N/A,,Clear,250,2013-06-23 01:56:00
7:56 PM,100.0,23.0,6,29.55,10.0,WSW,8.1,-,N/A,,Clear,240,2013-06-23 02:56:00
8:56 PM,96.1,24.1,8,29.56,10.0,West,9.2,-,N/A,,Clear,260,2013-06-23 03:56:00
9:56 PM,93.0,25.0,9,29.57,10.0,WSW,8.1,-,N/A,,Clear,240,2013-06-23 04:56:00
10:56 PM,91.0,25.0,9,29.57,10.0,WSW,8.1,-,N/A,,Clear,250,2013-06-23 05:56:00
11:56 PM,89.1,25.0,10,29.56,10.0,Calm,Calm,-,N/A,,Clear,0,2013-06-23 06:56:00